When you browse on this site, cookies collect data to enhance your experience and personalize the content and advertising you see.
Visit our Privacy Policy to learn more. By continuing to use the site, you agree to this use of cookies and data.
  • In Denmark
  • List of Countries
  • For 7 days
  • Water Temperature
  • Satellite Maps
  • Weather Map
  • Weather Widgets
  • user-avatar
    Login

    Hourly Weather Wien

    Today, 20 April, Saturday

    Time Temperature Precipitation Wind Pressure Humidity
    00:00 +12°C° 0 mm 1 mps 753 mmHg 61%
    01:00 +11°C° 0 mm 1 mps 753 mmHg 63%
    02:00 +10°C° 0 mm 1 mps 753 mmHg 64%
    03:00 +9°C° 0 mm 0 mps 753 mmHg 65%
    04:00 +8°C° 0 mm 0 mps 753 mmHg 66%
    05:00 +9°C° 0 mm 0 mps 753 mmHg 64%
    06:00 +10°C° 0 mm 0 mps 753 mmHg 62%
    07:00 +11°C° 0 mm 0 mps 753 mmHg 60%
    08:00 +14°C° 0 mm 1 mps 753 mmHg 54%
    09:00 +16°C° 0 mm 1 mps 753 mmHg 48%
    10:00 +19°C° 0 mm 1 mps 753 mmHg 42%
    11:00 +20°C° 0 mm 1 mps 753 mmHg 38%
    12:00 +21°C° 0 mm 1 mps 752 mmHg 35%
    13:00 +22°C° 0 mm 1 mps 752 mmHg 31%
    14:00 +22°C° 0 mm 1 mps 752 mmHg 31%
    15:00 +22°C° 0 mm 1 mps 751 mmHg 30%
    16:00 +22°C° 0 mm 1 mps 751 mmHg 30%
    17:00 +20°C° 0 mm 1 mps 750 mmHg 34%
    18:00 +18°C° 0 mm 1 mps 750 mmHg 38%
    19:00 +15°C° 0 mm 1 mps 750 mmHg 42%
    20:00 +15°C° 0 mm 1 mps 750 mmHg 44%
    21:00 +14°C° 0 mm 1 mps 750 mmHg 47%
    22:00 +13°C° 0 mm 1 mps 750 mmHg 49%
    23:00 +12°C° 0 mm 1 mps 750 mmHg 51%

    Tomorrow, 21 April, Sunday

    Time Temperature Precipitation Wind Pressure Humidity
    00:00 +12°C° 0 mm 1 mps 750 mmHg 54%
    01:00 +11°C° 0 mm 1 mps 750 mmHg 56%
    02:00 +11°C° 0 mm 1 mps 750 mmHg 58%
    03:00 +10°C° 0 mm 1 mps 749 mmHg 60%
    04:00 +10°C° 0 mm 1 mps 749 mmHg 62%
    05:00 +10°C° 0 mm 1 mps 749 mmHg 61%
    06:00 +11°C° 0 mm 1 mps 749 mmHg 60%
    07:00 +12°C° 0 mm 2 mps 749 mmHg 58%
    08:00 +14°C° 0 mm 2 mps 749 mmHg 52%
    09:00 +16°C° 0 mm 2 mps 748 mmHg 46%
    10:00 +18°C° 0 mm 2 mps 748 mmHg 40%
    11:00 +18°C° 0 mm 2 mps 748 mmHg 39%
    12:00 +19°C° 0 mm 2 mps 747 mmHg 37%
    13:00 +20°C° 0 mm 2 mps 747 mmHg 35%
    14:00 +20°C° 0 mm 2 mps 747 mmHg 36%
    15:00 +20°C° 0 mm 3 mps 746 mmHg 36%
    16:00 +20°C° 0 mm 3 mps 746 mmHg 37%
    17:00 +18°C° 0 mm 2 mps 746 mmHg 42%
    18:00 +16°C° 0 mm 2 mps 745 mmHg 47%
    19:00 +15°C° 0 mm 2 mps 745 mmHg 53%
    20:00 +14°C° 0 mm 2 mps 745 mmHg 56%
    21:00 +13°C° 0 mm 2 mps 746 mmHg 59%
    22:00 +12°C° 0 mm 1 mps 746 mmHg 62%
    23:00 +11°C° 0 mm 1 mps 745 mmHg 64%

    Day after tomorrow, 22 April, Monday

    Time Temperature Precipitation Wind Pressure Humidity
    00:00 +11°C° 0 mm 1 mps 745 mmHg 66%
    01:00 +10°C° 0 mm 1 mps 745 mmHg 68%
    02:00 +10°C° 0 mm 1 mps 744 mmHg 69%
    03:00 +9°C° 0 mm 1 mps 744 mmHg 71%
    04:00 +9°C° 0 mm 1 mps 743 mmHg 72%
    05:00 +10°C° 0 mm 1 mps 743 mmHg 70%
    06:00 +11°C° 0 mm 1 mps 743 mmHg 67%
    07:00 +11°C° 0 mm 1 mps 743 mmHg 65%
    08:00 +13°C° 0 mm 1 mps 742 mmHg 61%
    09:00 +15°C° 0 mm 2 mps 742 mmHg 56%
    10:00 +17°C° 0 mm 3 mps 742 mmHg 52%
    11:00 +17°C° 0 mm 3 mps 741 mmHg 52%
    12:00 +18°C° 0 mm 4 mps 741 mmHg 51%
    13:00 +18°C° 0 mm 4 mps 740 mmHg 51%
    14:00 +17°C° 0.1 mm 5 mps 740 mmHg 51%
    15:00 +19°C° 0.1 mm 5 mps 739 mmHg 52%
    16:00 +19°C° 0.1 mm 5 mps 739 mmHg 52%
    17:00 +16°C° 0.1 mm 5 mps 739 mmHg 58%
    18:00 +15°C° 0.1 mm 6 mps 739 mmHg 63%
    19:00 +14°C° 0.1 mm 7 mps 738 mmHg 68%
    20:00 +12°C° 0 mm 7 mps 738 mmHg 71%
    21:00 +11°C° 0 mm 7 mps 738 mmHg 73%
    22:00 +11°C° 0 mm 7 mps 738 mmHg 75%
    23:00 +11°C° 0 mm 7 mps 738 mmHg 76%

    23 April, Tuesday

    Time Temperature Precipitation Wind Pressure Humidity
    00:00 +11°C° 0 mm 7 mps 738 mmHg 76%
    01:00 +11°C° 0 mm 6 mps 738 mmHg 76%
    02:00 +10°C° 0.2 mm 7 mps 738 mmHg 78%
    03:00 +10°C° 0.2 mm 7 mps 737 mmHg 79%
    04:00 +9°C° 0.2 mm 8 mps 737 mmHg 81%
    05:00 +9°C° 0.6 mm 8 mps 737 mmHg 84%
    06:00 +9°C° 0.6 mm 7 mps 737 mmHg 86%
    07:00 +8°C° 0.6 mm 7 mps 737 mmHg 89%
    08:00 +9°C° 1.1 mm 8 mps 737 mmHg 89%
    09:00 +9°C° 1.1 mm 8 mps 737 mmHg 89%
    10:00 +9°C° 1.1 mm 8 mps 737 mmHg 89%
    11:00 +9°C° 0.3 mm 8 mps 737 mmHg 88%
    12:00 +8°C° 0.3 mm 9 mps 737 mmHg 87%
    13:00 +8°C° 0.3 mm 9 mps 737 mmHg 85%
    14:00 +8°C° 0.5 mm 9 mps 737 mmHg 86%
    15:00 +9°C° 0.5 mm 8 mps 737 mmHg 87%
    16:00 +10°C° 0.5 mm 8 mps 736 mmHg 88%
    17:00 +10°C° 0.3 mm 8 mps 737 mmHg 89%
    18:00 +11°C° 0.3 mm 8 mps 737 mmHg 90%
    19:00 +11°C° 0.3 mm 8 mps 737 mmHg 91%
    20:00 +11°C° 0.1 mm 8 mps 737 mmHg 90%
    21:00 +11°C° 0.1 mm 8 mps 737 mmHg 90%
    22:00 +11°C° 0.1 mm 8 mps 737 mmHg 89%
    23:00 +11°C° 0 mm 8 mps 737 mmHg 89%

    24 April, Wednesday

    Time Temperature Precipitation Wind Pressure Humidity
    00:00 +11°C° 0 mm 8 mps 738 mmHg 89%
    01:00 +11°C° 0 mm 7 mps 738 mmHg 89%
    02:00 +11°C° 0 mm 7 mps 738 mmHg 90%
    03:00 +11°C° 0 mm 7 mps 738 mmHg 91%
    04:00 +11°C° 0 mm 6 mps 738 mmHg 91%
    05:00 +11°C° 0 mm 6 mps 739 mmHg 90%
    06:00 +13°C° 0 mm 6 mps 739 mmHg 88%
    07:00 +13°C° 0 mm 5 mps 740 mmHg 87%
    08:00 +15°C° 0 mm 5 mps 740 mmHg 81%
    09:00 +16°C° 0 mm 5 mps 740 mmHg 76%
    10:00 +19°C° 0 mm 5 mps 741 mmHg 70%
    11:00 +20°C° 0 mm 5 mps 741 mmHg 65%
    12:00 +21°C° 0 mm 5 mps 741 mmHg 59%
    13:00 +23°C° 0 mm 5 mps 741 mmHg 54%
    14:00 +23°C° 0 mm 5 mps 741 mmHg 55%
    15:00 +23°C° 0 mm 5 mps 741 mmHg 55%
    16:00 +23°C° 0 mm 5 mps 741 mmHg 56%
    17:00 +21°C° 0 mm 5 mps 741 mmHg 62%
    18:00 +20°C° 0 mm 4 mps 741 mmHg 67%
    19:00 +19°C° 0 mm 4 mps 741 mmHg 73%
    20:00 +18°C° 0 mm 4 mps 741 mmHg 77%
    21:00 +17°C° 0 mm 3 mps 742 mmHg 82%
    22:00 +16°C° 0 mm 3 mps 742 mmHg 86%
    23:00 +14°C° 0 mm 3 mps 742 mmHg 88%

    25 April, Thursday

    Time Temperature Precipitation Wind Pressure Humidity
    00:00 +13°C° 0 mm 3 mps 742 mmHg 90%
    01:00 +13°C° 0 mm 3 mps 742 mmHg 92%
    02:00 +12°C° 0 mm 3 mps 742 mmHg 93%
    03:00 +12°C° 0 mm 3 mps 742 mmHg 94%
    04:00 +12°C° 0 mm 3 mps 742 mmHg 94%
    05:00 +12°C° 0 mm 4 mps 742 mmHg 92%
    06:00 +13°C° 0 mm 5 mps 742 mmHg 90%
    07:00 +13°C° 0 mm 5 mps 742 mmHg 88%
    08:00 +15°C° 0 mm 6 mps 742 mmHg 81%
    09:00 +16°C° 0 mm 7 mps 742 mmHg 74%
    10:00 +18°C° 0 mm 7 mps 742 mmHg 67%
    11:00 +21°C° 0 mm 8 mps 741 mmHg 62%
    12:00 +22°C° 0 mm 8 mps 741 mmHg 57%
    13:00 +23°C° 0 mm 8 mps 741 mmHg 52%
    14:00 +24°C° 0 mm 8 mps 740 mmHg 52%
    15:00 +24°C° 0 mm 8 mps 740 mmHg 52%
    16:00 +24°C° 0 mm 8 mps 739 mmHg 52%
    17:00 +23°C° 0 mm 7 mps 739 mmHg 57%
    18:00 +21°C° 0 mm 7 mps 739 mmHg 61%
    19:00 +20°C° 0 mm 6 mps 739 mmHg 65%
    20:00 +20°C° 0 mm 6 mps 739 mmHg 68%
    21:00 +19°C° 0 mm 6 mps 739 mmHg 71%
    22:00 +17°C° 0 mm 7 mps 739 mmHg 74%
    23:00 +17°C° 0 mm 6 mps 739 mmHg 77%
    Show more